Regional Weather Roundup
Issued by NWS

Home | Current Version | Previous Version | Graphics & Text | Print | Product List | Glossary On
Versions: 1 2 3 4 5 6 7 8 9 10 11 12 13 14 15 16 17 18 19 20 21 22 23 24 25 26 27 28 29 30 31 32 33 34 35 36 37 38 39 40 41 42 43 44 45 46 47 48 49 50
000
ASUS43 KTOP 290659
RWRKS

WEATHER ROUNDUP FOR KANSAS
NATIONAL WEATHER SERVICE GOODLAND KS
200 AM CDT WED JUL 29 2015

NOTE:  "FAIR" INDICATES FEW OR NO CLOUDS BELOW 12,000 FEET WITH NO
SIGNIFICANT WEATHER AND/OR OBSTRUCTIONS TO VISIBILITY.

KSZ001>006-013>018-027>032-041>047-290800-
NORTHWEST KANSAS

CITY           SKY/WX    TMP DP  RH WIND       PRES   REMARKS
GOODLAND       CLEAR     60  51  72 CALM      30.19R
HAYS           MOCLDY    72  55  56 NE8       30.10R
HILL CITY      PTCLDY    63  58  83 NE8       30.12R
RUSSELL        MOCLDY    73  60  63 NE12      30.07S
$$

KSZ061>065-074>080-084>089-290800-
SOUTHWEST KANSAS

CITY           SKY/WX    TMP DP  RH WIND       PRES   REMARKS
DODGE CITY     CLOUDY    71  59  65 N10       30.09R
ELKHART          N/A     66  62  87 SE5         N/A
GARDEN CITY    CLOUDY    70  55  59 NE14      30.13R
GREAT BEND     CLOUDY    75  57  53 NE14      30.06R
LIBERAL        CLOUDY    70  59  68 NW21G30   30.18R
$$

KSZ066>073-081>083-090>101-290800-
SOUTHEAST KANSAS

CITY           SKY/WX    TMP DP  RH WIND       PRES   REMARKS
CHANUTE        CLEAR     76  72  87 S7        29.98R
COFFEYVILLE    CLEAR     75  73  93 S6        29.97S
HUTCHINSON     MOCLDY    78  69  73 N13G21    30.02R
MEDICINE LODGE   N/A     82  67  60 S8        29.98S
NEWTON         CLEAR     79  66  65 N10       30.04R
PARSONS        CLEAR     77  73  87 S3        29.99R
WICHITA INTL   MOCLDY    81  67  62 CALM      29.99R
WICHITA JABRA  MOCLDY    82  67  60 SW5       30.00R
WINFIELD       CLEAR     80  69  69 S7        29.99R
$$

KSZ007>012-019>026-033>040-048>060-102>105-290800-
NORTHEAST KANSAS

CITY           SKY/WX    TMP DP  RH WIND       PRES   REMARKS
CONCORDIA      MOCLDY    70  62  76 E9        30.08R
EMPORIA        CLOUDY    78  73  84 SW6       29.99S
LAWRENCE       LGT RAIN  78  75  90 N10       29.99R FOG
MANHATTAN      CLOUDY    73  65  75 NE17G29   30.04R
OLATHE IND     CLOUDY    82  73  74 SW7       29.98S
OLATHE EXE     MOCLDY    81  72  74 SW6       29.97S
SALINA         HVY RAIN  74  62  66 NE17G29   30.05R
TOPEKA BILLARD MOCLDY    76  71  85 N13       30.00R
TOPEKA FORBES  PTCLDY    79  71  76 N12       30.01R
$$


USA.gov is the U.S. government's official web portal to all federal, state and local government web resources and services.